Sanford, NC

9:41 PM EST on December 10, 2016 (GMT -0500)
Raleigh Executive Jetport

Weather History for KTTA - February, 2013

Change the Weather History Date:

Monday, February 4, 2013

  Actual Average (KHRJ) Record (KHRJ)
Temperature  
Mean Temperature 36 °F -  
Max Temperature 49 °F 54 °F 75 °F (1986)
Min Temperature 22 °F 30 °F 13 °F (1980)
Degree Days  
Heating Degree Days 30    
Moisture  
Dew Point 23 °F    
Average Humidity 61    
Maximum Humidity 92    
Minimum Humidity 33    
Precipitation  
Precipitation 0.00 in - - ()
Sea Level Pressure  
Sea Level Pressure 30.06 in    
Wind  
Wind Speed 1 mph (SW)    
Max Wind Speed 7 mph    
Max Gust Speed -    
Visibility 10 miles    
Events      
Averages and records for this station are not official NWS values.
T = Trace of Precipitation, MM = Missing Value Source: NWS Daily Summary

Daily Weather History Graph

Daily Weather History Graph

Search for Another Location

Airport or City:

Trip Planner

Search our weather history database for the weather conditions in past years. The results will help you decide how hot, cold, wet, or windy it might be!

Date:

Astronomy

Feb. 04, 2013 Rise Set
Actual Time 7:13 AM EST 5:47 PM EST
Civil Twilight 6:47 AM EST 6:14 PM EST
Nautical Twilight 6:16 AM EST 6:44 PM EST
Astronomical Twilight 5:46 AM EST 7:14 PM EST
Moon 1:44 AM EST (2/4) 12:12 PM EST (2/4)
Length of Visible Light 11h 27m
Length of Day
10h 33m
Last Quarter, 37% of the Moon is Illuminated
Feb 4
Last Quarter
Feb 10
New
Feb 17
First Quarter
Feb 25
Full
Mar 4
Last Quarter

Hourly Weather History & Observations

Time (EST) Temp. Windchill Dew Point Humidity Pressure Visibility Wind Dir Wind Speed Gust Speed Precip Events Conditions
12:15 AM 28.4 °F - 24.6 °F 86% 30.00 in 10.0 mi Calm Calm - N/A   Clear
12:35 AM 26.4 °F - 22.6 °F 86% 30.01 in 10.0 mi Calm Calm - N/A   Clear
12:55 AM 27.9 °F 22.6 °F 23.5 °F 84% 30.00 in 10.0 mi NW 4.6 mph - N/A   Clear
1:15 AM 36.0 °F 31.1 °F 22.8 °F 59% 30.01 in 10.0 mi NNW 5.8 mph - N/A   Clear
1:35 AM 30.7 °F - 21.9 °F 70% 30.01 in 10.0 mi Calm Calm - N/A   Clear
1:55 AM 29.1 °F - 22.5 °F 76% 30.01 in 10.0 mi Calm Calm - N/A   Clear
2:15 AM 27.9 °F - 23.2 °F 83% 30.01 in 10.0 mi Calm Calm - N/A   Clear
2:35 AM 27.7 °F - 23.0 °F 83% 30.03 in 10.0 mi Calm Calm - N/A   Clear
2:55 AM 26.8 °F - 22.3 °F 83% 30.03 in 10.0 mi Calm Calm - N/A   Clear
3:15 AM 26.6 °F - 23.4 °F 88% 30.04 in 10.0 mi Calm Calm - N/A   Clear
3:35 AM 26.4 °F - 22.6 °F 86% 30.03 in 10.0 mi Calm Calm - N/A   Clear
3:55 AM 25.5 °F - 22.1 °F 87% 30.05 in 10.0 mi Calm Calm - N/A   Clear
4:15 AM 25.0 °F - 21.9 °F 88% 30.04 in 10.0 mi Calm Calm - N/A   Clear
6:15 AM 23.7 °F - 21.4 °F 91% 30.08 in 10.0 mi Calm Calm - N/A   Clear
6:35 AM 23.2 °F - 20.8 °F 91% 30.09 in 10.0 mi Calm Calm - N/A   Clear
7:15 AM 22.8 °F - 20.8 °F 92% 30.10 in 10.0 mi Calm Calm - N/A   Clear
7:35 AM 23.2 °F - 20.8 °F 91% 30.10 in 10.0 mi Calm Calm - N/A   Clear
8:15 AM 25.2 °F - 23.0 °F 91% 30.12 in 10.0 mi Calm Calm - N/A   Clear
9:15 AM 30.0 °F - 26.1 °F 85% 30.15 in 10.0 mi Calm Calm - N/A   Clear
9:35 AM 31.6 °F - 27.1 °F 83% 30.14 in 10.0 mi Calm Calm - N/A   Clear
9:55 AM 32.9 °F - 27.9 °F 82% 30.14 in 10.0 mi Calm Calm - N/A   Clear
10:15 AM 36.7 °F - 26.4 °F 66% 30.15 in 10.0 mi Calm Calm - N/A   Clear
10:35 AM 39.4 °F - 24.1 °F 54% 30.15 in 10.0 mi Calm Calm - N/A   Clear
10:55 AM 39.7 °F - 19.9 °F 45% 30.15 in 10.0 mi Calm Calm - N/A   Clear
11:15 AM 41.2 °F - 20.3 °F 43% 30.14 in 10.0 mi Calm Calm - N/A   Clear
11:35 AM 43.0 °F 41.3 °F 18.7 °F 38% 30.14 in 10.0 mi NW 3.5 mph - N/A   Clear
12:15 PM 44.1 °F 40.8 °F 18.9 °F 37% 30.13 in 10.0 mi NNW 5.8 mph - N/A   Clear
12:35 PM 46.6 °F - 19.2 °F 34% 30.12 in 10.0 mi WNW 6.9 mph - N/A   Clear
12:55 PM 46.6 °F - 19.2 °F 34% 30.11 in 10.0 mi Calm Calm - N/A   Clear
1:15 PM 46.4 °F 45.2 °F 19.2 °F 34% 30.09 in 10.0 mi West 3.5 mph - N/A   Clear
1:35 PM 46.4 °F - 19.0 °F 34% 30.07 in 10.0 mi Calm Calm - N/A   Clear
1:55 PM 46.4 °F 45.2 °F 19.9 °F 35% 30.06 in 10.0 mi South 3.5 mph - N/A   Mostly Cloudy
2:15 PM 47.7 °F - 21.4 °F 35% 30.07 in 10.0 mi SSW 4.6 mph - N/A   Scattered Clouds
2:35 PM 48.2 °F - 20.7 °F 34% 30.08 in 10.0 mi SW 3.5 mph - N/A   Clear
2:55 PM 48.4 °F - 20.5 °F 33% 30.06 in 10.0 mi SSW 3.5 mph - N/A   Clear
3:15 PM 48.6 °F - 20.5 °F 33% 30.05 in 10.0 mi WSW 4.6 mph - N/A   Clear
3:55 PM 49.1 °F - 21.2 °F 33% 30.06 in 10.0 mi SSW 4.6 mph - N/A   Clear
4:15 PM 48.7 °F - 20.5 °F 33% 30.05 in 10.0 mi SSW 4.6 mph - N/A   Clear
4:35 PM 48.4 °F - 20.3 °F 33% 30.05 in 10.0 mi SSE 4.6 mph - N/A   Clear
4:55 PM 48.2 °F - 21.7 °F 35% 30.04 in 10.0 mi SSE 3.5 mph - N/A   Clear
5:15 PM 47.3 °F - 22.6 °F 38% 30.03 in 10.0 mi Calm Calm - N/A   Clear
5:35 PM 46.4 °F 45.2 °F 23.0 °F 40% 30.03 in 10.0 mi SSE 3.5 mph - N/A   Clear
5:55 PM 45.7 °F 44.4 °F 23.4 °F 41% 30.03 in 10.0 mi SSE 3.5 mph - N/A   Clear
6:15 PM 44.6 °F - 24.8 °F 46% 30.03 in 10.0 mi Calm Calm - N/A   Clear
6:35 PM 43.7 °F - 25.7 °F 49% 30.04 in 10.0 mi Calm Calm - N/A   Clear
6:55 PM 43.0 °F - 26.2 °F 52% 30.04 in 10.0 mi Calm Calm - N/A   Clear
7:15 PM 42.3 °F - 26.2 °F 53% 30.04 in 10.0 mi Calm Calm - N/A   Clear
7:55 PM 43.7 °F 42.1 °F 27.0 °F 52% 30.04 in 10.0 mi SSW 3.5 mph - N/A   Scattered Clouds
8:15 PM 43.9 °F 41.3 °F 27.0 °F 51% 30.05 in 10.0 mi SSW 4.6 mph - N/A   Scattered Clouds
8:35 PM 43.5 °F 40.9 °F 27.1 °F 53% 30.04 in 10.0 mi SSW 4.6 mph - N/A   Scattered Clouds
8:55 PM 42.4 °F - 26.8 °F 54% 30.04 in 10.0 mi Calm Calm - N/A   Scattered Clouds
9:15 PM 42.1 °F - 27.0 °F 55% 30.04 in 10.0 mi Calm Calm - N/A   Clear
9:35 PM 40.5 °F 38.4 °F 27.0 °F 59% 30.03 in 10.0 mi South 3.5 mph - N/A   Clear
9:55 PM 39.7 °F - 27.0 °F 60% 30.04 in 10.0 mi Calm Calm - N/A   Clear
10:15 PM 37.8 °F - 27.5 °F 67% 30.04 in 10.0 mi Calm Calm - N/A   Clear
10:35 PM 36.0 °F - 27.3 °F 71% 30.04 in 10.0 mi Calm Calm - N/A   Clear
10:55 PM 33.4 °F - 27.1 °F 78% 30.04 in 10.0 mi Calm Calm - N/A   Clear
11:15 PM 33.6 °F - 27.3 °F 78% 30.04 in 10.0 mi Calm Calm - N/A   Clear
11:35 PM 32.9 °F - 27.3 °F 80% 30.03 in 10.0 mi Calm Calm - N/A   Clear
11:55 PM 33.1 °F - 27.5 °F 80% 30.03 in 10.0 mi Calm Calm - N/A   Clear